Flag for Brazil Weather past 2 weeks in Santarém, Pará, Brazil

Now
79 °F

Partly cloudy.


Feels Like: 82 °F
Forecast: 76 / 86 °F
Wind: 9 mph from Southeast

Location: Santarem-Aeroporto

Current Time: Apr 27, 2015 at 12:00:33 AM

Latest Report: Apr 26, 2015 at 11:00 PM


Visibility: N/A

Pressure: 29.89 "Hg

Humidity: 89%

Dew point: 75 °F

Location of SantarémLocation

Historic Weather in Santarém — Graph

°F

Santarém temperature yesterday

Maximum temperature yesterday: 88 °F (at 3:00 PM)
Minimum temperature yesterday: 75 °F (at 12:00 AM)
Average temperature yesterday: 81 °F

Past Weeks' High & Low Weather Summary

 TemperatureHumidityPressure
High88 °F (Apr 16, 2:00 PM)100% (Apr 12, 6:00 AM)29.98 "Hg (Apr 12, 6:00 AM)
Low39 °F (Apr 12, 11:00 PM)66% (Apr 13, 5:00 PM)29.74 "Hg (Apr 16, 5:00 PM)
Average80 °F87%29.87 "Hg
* Reported Apr 11 10:00 PM — Apr 26 10:00 PM, Santarém, Weather by CustomWeather, © 2015

Note: Actual official high and low records may vary slightly from our data, if they occured in-between our weather recording intervals... More about our weather records

Advertising

Santarém weather history for previous 24 hours

 ConditionsComfort  
Time TempWeatherWind HumidityBarometerVisibility
10:00 PM
Sun, Apr 26
79 °FPartly cloudy.12 mph94%29.89 "HgN/A
9:00 PM82 °FThundershowers. Passing clouds.18 mph79%29.89 "HgN/A
8:00 PM81 °FThundershowers. Passing clouds.5 mph89%29.83 "HgN/A
7:00 PM81 °FThundershowers. Passing clouds.6 mph84%29.80 "HgN/A
6:00 PM86 °FBroken clouds.7 mph75%29.80 "HgN/A
5:00 PM84 °FScattered clouds.5 mph74%29.80 "HgN/A
4:00 PM86 °FScattered clouds.7 mph75%29.80 "HgN/A
3:00 PM88 °FScattered clouds.5 mph70%29.83 "HgN/A
2:00 PM86 °FScattered clouds.9 mph75%29.86 "HgN/A
1:00 PM86 °FScattered clouds.14 mph75%29.92 "HgN/A
12:00 PM86 °FScattered clouds.14 mph75%29.95 "HgN/A
11:00 AM84 °FScattered clouds.12 mph79%29.95 "HgN/A
10:00 AM82 °FBroken clouds.8 mph84%29.95 "HgN/A
9:00 AM81 °FScattered clouds.8 mph84%29.92 "HgN/A
8:00 AM81 °FPartly sunny.7 mph84%29.92 "HgN/A
7:00 AM79 °FPassing clouds.5 mph89%29.89 "HgN/A
6:00 AM77 °FPassing clouds.9 mph94%29.86 "HgN/A
5:00 AM77 °FThundershowers. Passing clouds.6 mph94%29.86 "HgN/A
4:00 AM75 °FThundershowers. Passing clouds.No wind94%29.86 "HgN/A
3:00 AM75 °FThundershowers. Passing clouds.No wind94%29.83 "HgN/A
2:00 AM75 °FThundershowers. Passing clouds.5 mph94%29.86 "HgN/A
1:00 AM75 °FThundershowers. Passing clouds.5 mph100%29.86 "HgN/A
12:00 AM75 °FPassing clouds.5 mph100%29.89 "HgN/A
Weather by CustomWeather, © 2015

See weather overviewHow to use our weather pages